,,,PA_Meas_PMT16A,,PR_Meas_QMR101_102,,RH_Meas_QMH101,,SR_Meas_QMS101,,TA_Meas_QMH101,,GenWind,,GenWind,
date,time,status,PA,status,PR,status,RH,status,SR,status,TA,status,DirAvg,status,SpdAvg,
2011-02-27, 00:00:04,VALID,1008.71,VALID,0,VALID,103.733,VALID,0,VALID,23.5169,VALID,33,VALID,0,
2011-02-27, 00:01:04,VALID,1008.72,VALID,0,VALID,103.71,VALID,0.105969,VALID,23.5169,VALID,33,VALID,0,
2011-02-27, 00:02:04,VALID,1008.72,VALID,0,VALID,103.733,VALID,0.105969,VALID,23.5169,VALID,33,VALID,0,
2011-02-27, 00:03:04,VALID,1008.7,VALID,0,VALID,103.748,VALID,0,VALID,23.5363,VALID,33,VALID,0,
2011-02-27, 00:04:04,VALID,1008.67,VALID,0,VALID,103.756,VALID,0.105969,VALID,23.5381,VALID,33,VALID,0,
2011-02-27, 00:05:04,VALID,1008.65,VALID,0,VALID,103.771,VALID,0,VALID,23.5169,VALID,33,VALID,0,
2011-02-27, 00:06:04,VALID,1008.64,VALID,0,VALID,103.787,VALID,0,VALID,23.5381,VALID,33,VALID,0,
2011-02-27, 00:07:04,VALID,1008.66,VALID,0,VALID,103.764,VALID,0,VALID,23.4974,VALID,33,VALID,0,
2011-02-27, 00:08:04,VALID,1008.67,VALID,0,VALID,103.764,VALID,0.105969,VALID,23.5169,VALID,33,VALID,0,
2011-02-27, 00:09:04,VALID,1008.7,VALID,0,VALID,103.748,VALID,0,VALID,23.4974,VALID,33,VALID,0,
2011-02-27, 00:10:04,VALID,1008.66,VALID,0,VALID,103.756,VALID,0.105969,VALID,23.5169,VALID,33,VALID,0,
2011-02-27, 00:11:04,VALID,1008.65,VALID,0,VALID,103.741,VALID,0.105969,VALID,23.4974,VALID,33,VALID,0,
2011-02-27, 00:12:04,VALID,1008.65,VALID,0,VALID,103.718,VALID,0,VALID,23.4974,VALID,33,VALID,0,
2011-02-27, 00:13:04,VALID,1008.62,VALID,0,VALID,103.687,VALID,0.105969,VALID,23.4992,VALID,33,VALID,0,
2011-02-27, 00:14:04,VALID,1008.63,VALID,0,VALID,103.657,VALID,0,VALID,23.4779,VALID,33,VALID,0,
2011-02-27, 00:15:04,VALID,1008.61,VALID,0,VALID,103.672,VALID,0,VALID,23.4797,VALID,33,VALID,0,
2011-02-27, 00:16:04,VALID,1008.59,VALID,0,VALID,103.672,VALID,0,VALID,23.4779,VALID,33,VALID,0,
2011-02-27, 00:17:04,VALID,1008.57,VALID,0,VALID,103.68,VALID,0.105969,VALID,23.4584,VALID,33,VALID,0,
2011-02-27, 00:18:04,VALID,1008.56,VALID,0,VALID,103.687,VALID,0,VALID,23.4584,VALID,33,VALID,0,
2011-02-27, 00:19:04,VALID,1008.53,VALID,0,VALID,103.672,VALID,0.105969,VALID,23.4584,VALID,33,VALID,0,
2011-02-27, 00:20:04,VALID,1008.5,VALID,0,VALID,103.695,VALID,0.105969,VALID,23.4389,VALID,33,VALID,0,
2011-02-27, 00:21:04,VALID,1008.51,VALID,0,VALID,103.68,VALID,0.105969,VALID,23.4389,VALID,33,VALID,0,
2011-02-27, 00:22:04,VALID,1008.51,VALID,0,VALID,103.687,VALID,0,VALID,23.4194,VALID,33,VALID,0,
2011-02-27, 00:23:04,VALID,1008.48,VALID,0,VALID,103.71,VALID,0.105969,VALID,23.4,VALID,33,VALID,0,
2011-02-27, 00:24:04,VALID,1008.48,VALID,0,VALID,103.71,VALID,0,VALID,23.3805,VALID,33,VALID,0,
2011-02-27, 00:25:04,VALID,1008.51,VALID,0,VALID,103.733,VALID,0.105969,VALID,23.3805,VALID,33,VALID,0,
2011-02-27, 00:26:04,VALID,1008.49,VALID,0,VALID,103.726,VALID,0,VALID,23.361,VALID,33,VALID,0,
2011-02-27, 00:27:04,VALID,1008.49,VALID,0,VALID,103.764,VALID,0.105969,VALID,23.3415,VALID,33,VALID,0,
2011-02-27, 00:28:04,VALID,1008.48,VALID,0,VALID,103.794,VALID,0.105969,VALID,23.3203,VALID,33,VALID,0,
2011-02-27, 00:29:04,VALID,1008.46,VALID,0,VALID,103.832,VALID,0.105969,VALID,23.3026,VALID,33,VALID,0,
2011-02-27, 00:30:04,VALID,1008.47,VALID,0,VALID,103.878,VALID,0,VALID,23.3043,VALID,33,VALID,0,
2011-02-27, 00:31:04,VALID,1008.42,VALID,0,VALID,103.909,VALID,0,VALID,23.3043,VALID,33,VALID,0,
2011-02-27, 00:32:04,VALID,1008.43,VALID,0,VALID,103.97,VALID,0,VALID,23.3043,VALID,33,VALID,0,
2011-02-27, 00:33:04,VALID,1008.41,VALID,0,VALID,103.977,VALID,0,VALID,23.3061,VALID,33,VALID,0,
2011-02-27, 00:34:04,VALID,1008.39,VALID,0,VALID,103.97,VALID,0,VALID,23.2654,VALID,33,VALID,0,
2011-02-27, 00:35:04,VALID,1008.36,VALID,0,VALID,104,VALID,0,VALID,23.2654,VALID,33,VALID,0,
2011-02-27, 00:36:04,VALID,1008.36,VALID,0,VALID,104,VALID,0,VALID,23.2459,VALID,33,VALID,0,
2011-02-27, 00:37:04,VALID,1008.32,VALID,0,VALID,104,VALID,0,VALID,23.2459,VALID,33,VALID,0,
2011-02-27, 00:38:04,VALID,1008.32,VALID,0,VALID,104,VALID,0,VALID,23.2264,VALID,33,VALID,0,
2011-02-27, 00:39:04,VALID,1008.32,VALID,0,VALID,104,VALID,0,VALID,23.2264,VALID,33,VALID,0,
2011-02-27, 00:40:04,VALID,1008.34,VALID,0,VALID,104,VALID,0,VALID,23.2459,VALID,33,VALID,0,
2011-02-27, 00:41:04,VALID,1008.32,VALID,0,VALID,104,VALID,0,VALID,23.2264,VALID,33,VALID,0,
2011-02-27, 00:42:04,VALID,1008.33,VALID,0,VALID,104,VALID,0,VALID,23.2264,VALID,33,VALID,0,
2011-02-27, 00:43:04,VALID,1008.32,VALID,0,VALID,104,VALID,0,VALID,23.2069,VALID,33,VALID,0,
2011-02-27, 00:44:04,VALID,1008.29,VALID,0,VALID,104,VALID,0,VALID,23.2282,VALID,33,VALID,0,
2011-02-27, 00:45:04,VALID,1008.29,VALID,0,VALID,104,VALID,0.105969,VALID,23.2246,VALID,33,VALID,0,
2011-02-27, 00:46:04,VALID,1008.32,VALID,0,VALID,104,VALID,0,VALID,23.2051,VALID,33,VALID,0,
2011-02-27, 00:47:04,VALID,1008.28,VALID,0,VALID,104,VALID,0,VALID,23.2051,VALID,33,VALID,0,
2011-02-27, 00:48:04,VALID,1008.28,VALID,0,VALID,104,VALID,0.105969,VALID,23.2246,VALID,33,VALID,0,
2011-02-27, 00:49:04,VALID,1008.27,VALID,0,VALID,104,VALID,0.105969,VALID,23.2051,VALID,33,VALID,0,
2011-02-27, 00:50:04,VALID,1008.28,VALID,0,VALID,104,VALID,0.105969,VALID,23.2051,VALID,33,VALID,0,
2011-02-27, 00:51:04,VALID,1008.24,VALID,0,VALID,104,VALID,0,VALID,23.2051,VALID,33,VALID,0,
2011-02-27, 00:52:04,VALID,1008.24,VALID,0,VALID,104,VALID,0.105969,VALID,23.1857,VALID,33,VALID,0,
2011-02-27, 00:53:04,VALID,1008.23,VALID,0,VALID,104,VALID,0.105969,VALID,23.1857,VALID,33,VALID,0,
2011-02-27, 00:54:04,VALID,1008.18,VALID,0,VALID,104,VALID,0.105969,VALID,23.1857,VALID,33,VALID,0,
2011-02-27, 00:55:04,VALID,1008.16,VALID,0,VALID,104,VALID,0.105969,VALID,23.1662,VALID,33,VALID,0,
2011-02-27, 00:56:04,VALID,1008.15,VALID,0,VALID,104,VALID,0,VALID,23.1662,VALID,33,VALID,0,
2011-02-27, 00:57:04,VALID,1008.13,VALID,0,VALID,104,VALID,0,VALID,23.1662,VALID,33,VALID,0,
2011-02-27, 00:58:04,VALID,1008.16,VALID,0,VALID,104,VALID,0.105969,VALID,23.1662,VALID,33,VALID,0,
2011-02-27, 00:59:04,VALID,1008.14,VALID,0,VALID,104,VALID,0.105969,VALID,23.1467,VALID,33,VALID,0,
2011-02-27, 01:00:04,VALID,1008.12,VALID,0,VALID,104,VALID,0,VALID,23.1485,VALID,33,VALID,0,
2011-02-27, 01:01:04,VALID,1008.12,VALID,0,VALID,104,VALID,0,VALID,23.129,VALID,33,VALID,0,
2011-02-27, 01:02:04,VALID,1008.15,VALID,0,VALID,104,VALID,0,VALID,23.1095,VALID,33,VALID,0,
2011-02-27, 01:03:04,VALID,1008.13,VALID,0,VALID,104,VALID,0,VALID,23.1112,VALID,33,VALID,0,
2011-02-27, 01:04:04,VALID,1008.12,VALID,0,VALID,104,VALID,0,VALID,23.09,VALID,33,VALID,0,
2011-02-27, 01:05:04,VALID,1008.11,VALID,0,VALID,104,VALID,0,VALID,23.0705,VALID,51,VALID,0.464453,
2011-02-27, 01:06:04,VALID,1008.11,VALID,0,VALID,104,VALID,0,VALID,23.0511,VALID,57,VALID,0.505859,
2011-02-27, 01:07:04,VALID,1008.11,VALID,0,VALID,104,VALID,0,VALID,23.09,VALID,58,VALID,0.480078,
2011-02-27, 01:08:04,VALID,1008.14,VALID,0,VALID,104,VALID,0,VALID,23.1095,VALID,77,VALID,0.758203,
2011-02-27, 01:09:04,VALID,1008.12,VALID,0,VALID,104,VALID,0,VALID,23.129,VALID,79,VALID,0.517969,
2011-02-27, 01:10:04,VALID,1008.09,VALID,0,VALID,104,VALID,0,VALID,23.129,VALID,83,VALID,0.296094,
2011-02-27, 01:11:04,VALID,1008.09,VALID,0,VALID,104,VALID,0,VALID,23.1485,VALID,83,VALID,0.00117188,
2011-02-27, 01:12:04,VALID,1008.06,VALID,0,VALID,104,VALID,0,VALID,23.129,VALID,89,VALID,0.369141,
2011-02-27, 01:13:04,VALID,1008.07,VALID,0,VALID,104,VALID,0,VALID,23.1485,VALID,89,VALID,0.638672,
2011-02-27, 01:14:04,VALID,1008.05,VALID,0,VALID,104,VALID,0,VALID,23.1679,VALID,89,VALID,0.0960938,
2011-02-27, 01:15:04,VALID,1008,VALID,0,VALID,104,VALID,0,VALID,23.1662,VALID,89,VALID,0,
2011-02-27, 01:16:04,VALID,1008.01,VALID,0,VALID,104,VALID,0.105969,VALID,23.1662,VALID,89,VALID,0,
2011-02-27, 01:17:04,VALID,1007.98,VALID,0,VALID,104,VALID,0,VALID,23.1857,VALID,89,VALID,0,
2011-02-27, 01:18:04,VALID,1008.01,VALID,0,VALID,104,VALID,0.105969,VALID,23.1857,VALID,89,VALID,0,
2011-02-27, 01:19:04,VALID,1007.97,VALID,0,VALID,104,VALID,0.105969,VALID,23.1662,VALID,89,VALID,0,
2011-02-27, 01:20:04,VALID,1007.97,VALID,0,VALID,104,VALID,0,VALID,23.1679,VALID,89,VALID,0,
2011-02-27, 01:21:04,VALID,1007.95,VALID,0,VALID,104,VALID,0.105969,VALID,23.1662,VALID,89,VALID,0,
2011-02-27, 01:22:04,VALID,1007.93,VALID,0,VALID,104,VALID,0.105969,VALID,23.1467,VALID,89,VALID,0,
2011-02-27, 01:23:04,VALID,1007.94,VALID,0,VALID,104,VALID,0.105969,VALID,23.1467,VALID,89,VALID,0,
2011-02-27, 01:24:04,VALID,1007.94,VALID,0,VALID,104,VALID,0.105969,VALID,23.1467,VALID,89,VALID,0,
2011-02-27, 01:25:04,VALID,1007.93,VALID,0,VALID,104,VALID,0.105969,VALID,23.1255,VALID,89,VALID,0,
2011-02-27, 01:26:04,VALID,1007.91,VALID,0,VALID,104,VALID,0.105969,VALID,23.1467,VALID,89,VALID,0,
2011-02-27, 01:27:04,VALID,1007.89,VALID,0,VALID,104,VALID,0.105969,VALID,23.1662,VALID,89,VALID,0,
2011-02-27, 01:28:04,VALID,1007.9,VALID,0,VALID,104,VALID,0,VALID,23.1467,VALID,89,VALID,0,
2011-02-27, 01:29:04,VALID,1007.9,VALID,0,VALID,104,VALID,0.105969,VALID,23.1467,VALID,89,VALID,0,
2011-02-27, 01:30:04,VALID,1007.89,VALID,0,VALID,104,VALID,0.105969,VALID,23.1272,VALID,89,VALID,0,
2011-02-27, 01:31:04,VALID,1007.86,VALID,0,VALID,104,VALID,0.105969,VALID,23.1272,VALID,89,VALID,0,
2011-02-27, 01:32:04,VALID,1007.87,VALID,0,VALID,104,VALID,0.105969,VALID,23.1077,VALID,89,VALID,0,
2011-02-27, 01:33:04,VALID,1007.88,VALID,0,VALID,104,VALID,0.105969,VALID,23.0688,VALID,89,VALID,0,
2011-02-27, 01:34:04,VALID,1007.9,VALID,0,VALID,104,VALID,0.105969,VALID,23.0688,VALID,89,VALID,0,
2011-02-27, 01:35:04,VALID,1007.9,VALID,0,VALID,104,VALID,0,VALID,23.0688,VALID,89,VALID,0,
2011-02-27, 01:36:04,VALID,1007.89,VALID,0,VALID,104,VALID,0.105969,VALID,23.0493,VALID,89,VALID,0,
2011-02-27, 01:37:04,VALID,1007.9,VALID,0,VALID,104,VALID,0.105969,VALID,23.0298,VALID,89,VALID,0,
2011-02-27, 01:38:04,VALID,1007.89,VALID,0,VALID,104,VALID,0.105969,VALID,23.0298,VALID,89,VALID,0,
2011-02-27, 01:39:04,VALID,1007.86,VALID,0,VALID,104,VALID,0,VALID,23.0316,VALID,89,VALID,0,
2011-02-27, 01:40:04,VALID,1007.87,VALID,0,VALID,104,VALID,0.105969,VALID,23.0298,VALID,89,VALID,0,
2011-02-27, 01:41:04,VALID,1007.83,VALID,0,VALID,104,VALID,0.105969,VALID,23.0298,VALID,89,VALID,0,
2011-02-27, 01:42:04,VALID,1007.81,VALID,0,VALID,104,VALID,0.105969,VALID,23.0103,VALID,89,VALID,0,
2011-02-27, 01:43:04,VALID,1007.8,VALID,0,VALID,104,VALID,0.105969,VALID,23.0103,VALID,89,VALID,0,
2011-02-27, 01:44:04,VALID,1007.81,VALID,0,VALID,104,VALID,0.105969,VALID,22.9714,VALID,89,VALID,0,
2011-02-27, 01:45:04,VALID,1007.8,VALID,0,VALID,104,VALID,0,VALID,22.9519,VALID,89,VALID,0,
2011-02-27, 01:46:04,VALID,1007.79,VALID,0,VALID,104,VALID,0.105969,VALID,22.9112,VALID,89,VALID,0,
2011-02-27, 01:47:04,VALID,1007.77,VALID,0,VALID,104,VALID,0.105969,VALID,22.9324,VALID,89,VALID,0,
2011-02-27, 01:48:04,VALID,1007.77,VALID,0,VALID,104,VALID,0.105969,VALID,22.9129,VALID,89,VALID,0,
2011-02-27, 01:49:04,VALID,1007.74,VALID,0,VALID,104,VALID,0,VALID,22.9129,VALID,89,VALID,0,
2011-02-27, 01:50:04,VALID,1007.72,VALID,0,VALID,104,VALID,0,VALID,22.8935,VALID,89,VALID,0,
2011-02-27, 01:51:04,VALID,1007.74,VALID,0,VALID,104,VALID,0.105969,VALID,22.9129,VALID,89,VALID,0,
2011-02-27, 01:52:04,VALID,1007.72,VALID,0,VALID,104,VALID,0,VALID,22.8935,VALID,89,VALID,0,
2011-02-27, 01:53:04,VALID,1007.68,VALID,0,VALID,104,VALID,0.105969,VALID,22.874,VALID,89,VALID,0,
2011-02-27, 01:54:04,VALID,1007.67,VALID,0,VALID,104,VALID,0,VALID,22.8545,VALID,89,VALID,0,
2011-02-27, 01:55:04,VALID,1007.64,VALID,0,VALID,104,VALID,0.105969,VALID,22.8545,VALID,89,VALID,0,
2011-02-27, 01:56:04,VALID,1007.61,VALID,0,VALID,104,VALID,0,VALID,22.835,VALID,89,VALID,0,
2011-02-27, 01:57:04,VALID,1007.6,VALID,0,VALID,104,VALID,0.105969,VALID,22.835,VALID,89,VALID,0,
2011-02-27, 01:58:04,VALID,1007.58,VALID,0,VALID,104,VALID,0,VALID,22.8155,VALID,89,VALID,0,
2011-02-27, 01:59:04,VALID,1007.53,VALID,0,VALID,104,VALID,0,VALID,22.7961,VALID,89,VALID,0,
2011-02-27, 02:00:04,VALID,1007.56,VALID,0,VALID,104,VALID,0.105969,VALID,22.7766,VALID,89,VALID,0,
2011-02-27, 02:01:04,VALID,1007.54,VALID,0,VALID,104,VALID,0,VALID,22.7571,VALID,89,VALID,0,
2011-02-27, 02:02:04,VALID,1007.52,VALID,0,VALID,104,VALID,0.105969,VALID,22.7554,VALID,89,VALID,0.139062,
2011-02-27, 02:03:04,VALID,1007.51,VALID,0,VALID,104,VALID,0,VALID,22.7376,VALID,55,VALID,0.385547,
2011-02-27, 02:04:04,VALID,1007.53,VALID,0,VALID,104,VALID,0.105969,VALID,22.7182,VALID,56,VALID,0.0191406,
2011-02-27, 02:05:04,VALID,1007.47,VALID,0,VALID,104,VALID,0,VALID,22.7182,VALID,56,VALID,0,
2011-02-27, 02:06:04,VALID,1007.51,VALID,0,VALID,104,VALID,0.105969,VALID,22.7376,VALID,55,VALID,0.04375,
2011-02-27, 02:07:04,VALID,1007.53,VALID,0,VALID,104,VALID,0,VALID,22.6987,VALID,56,VALID,0.639453,
2011-02-27, 02:08:04,VALID,1007.51,VALID,0,VALID,104,VALID,0,VALID,22.6792,VALID,56,VALID,0.174609,
2011-02-27, 02:09:04,VALID,1007.54,VALID,0,VALID,104,VALID,0,VALID,22.6597,VALID,56,VALID,0,
2011-02-27, 02:10:04,VALID,1007.54,VALID,0,VALID,104,VALID,0,VALID,22.6597,VALID,56,VALID,0,
2011-02-27, 02:11:04,VALID,1007.53,VALID,0,VALID,104,VALID,0,VALID,22.6809,VALID,56,VALID,0.246875,
2011-02-27, 02:12:04,VALID,1007.52,VALID,0,VALID,104,VALID,0,VALID,22.6597,VALID,56,VALID,0.00585938,
2011-02-27, 02:13:04,VALID,1007.49,VALID,0,VALID,104,VALID,0,VALID,22.6402,VALID,56,VALID,0,
2011-02-27, 02:14:04,VALID,1007.47,VALID,0,VALID,104,VALID,0.105969,VALID,22.6013,VALID,56,VALID,0,
2011-02-27, 02:15:04,VALID,1007.44,VALID,0,VALID,104,VALID,0.105969,VALID,22.642,VALID,56,VALID,0,
2011-02-27, 02:16:04,VALID,1007.44,VALID,0,VALID,104,VALID,0.105969,VALID,22.6208,VALID,56,VALID,0,
2011-02-27, 02:17:04,VALID,1007.39,VALID,0,VALID,104,VALID,0.105969,VALID,22.6402,VALID,55,VALID,0,
2011-02-27, 02:18:04,VALID,1007.39,VALID,0,VALID,104,VALID,0.105969,VALID,22.6191,VALID,56,VALID,0,
2011-02-27, 02:19:04,VALID,1007.37,VALID,0,VALID,104,VALID,0,VALID,22.6402,VALID,56,VALID,0,
2011-02-27, 02:20:04,VALID,1007.35,VALID,0,VALID,104,VALID,0.105969,VALID,22.6208,VALID,56,VALID,0,
2011-02-27, 02:21:04,VALID,1007.37,VALID,0,VALID,104,VALID,0.105969,VALID,22.6013,VALID,56,VALID,0,
2011-02-27, 02:22:04,VALID,1007.37,VALID,0,VALID,104,VALID,0.105969,VALID,22.5818,VALID,56,VALID,0,
2011-02-27, 02:23:04,VALID,1007.38,VALID,0,VALID,104,VALID,0.105969,VALID,22.5818,VALID,56,VALID,0,
2011-02-27, 02:24:04,VALID,1007.4,VALID,0,VALID,104,VALID,0.105969,VALID,22.5429,VALID,56,VALID,0,
2011-02-27, 02:25:04,VALID,1007.41,VALID,0,VALID,104,VALID,0.105969,VALID,22.5234,VALID,56,VALID,0,
2011-02-27, 02:26:04,VALID,1007.39,VALID,0,VALID,104,VALID,0,VALID,22.4844,VALID,56,VALID,0,
2011-02-27, 02:27:04,VALID,1007.38,VALID,0,VALID,104,VALID,0.105969,VALID,22.4844,VALID,56,VALID,0,
2011-02-27, 02:28:04,VALID,1007.41,VALID,0,VALID,104,VALID,0.105969,VALID,22.4455,VALID,56,VALID,0,
2011-02-27, 02:29:04,VALID,1007.42,VALID,0,VALID,104,VALID,0,VALID,22.4667,VALID,56,VALID,0,
2011-02-27, 02:30:04,VALID,1007.4,VALID,0,VALID,104,VALID,0.105969,VALID,22.426,VALID,56,VALID,0,
2011-02-27, 02:31:04,VALID,1007.36,VALID,0,VALID,104,VALID,0.105969,VALID,22.4277,VALID,56,VALID,0,
2011-02-27, 02:32:04,VALID,1007.37,VALID,0,VALID,104,VALID,0.105969,VALID,22.426,VALID,56,VALID,0,
2011-02-27, 02:33:04,VALID,1007.37,VALID,0,VALID,104,VALID,0.105969,VALID,22.426,VALID,56,VALID,0,
2011-02-27, 02:34:04,VALID,1007.34,VALID,0,VALID,104,VALID,0.105969,VALID,22.426,VALID,56,VALID,0,
2011-02-27, 02:35:04,VALID,1007.35,VALID,0,VALID,104,VALID,0.105969,VALID,22.4455,VALID,56,VALID,0,
2011-02-27, 02:36:04,VALID,1007.35,VALID,0,VALID,104,VALID,0.105969,VALID,22.426,VALID,56,VALID,0,
2011-02-27, 02:37:04,VALID,1007.34,VALID,0,VALID,104,VALID,0.105969,VALID,22.4065,VALID,56,VALID,0,
2011-02-27, 02:38:04,VALID,1007.3,VALID,0,VALID,104,VALID,0.105969,VALID,22.4065,VALID,56,VALID,0,
2011-02-27, 02:39:04,VALID,1007.29,VALID,0,VALID,104,VALID,0.105969,VALID,22.387,VALID,56,VALID,0,
2011-02-27, 02:40:04,VALID,1007.3,VALID,0,VALID,104,VALID,0.105969,VALID,22.4065,VALID,56,VALID,0,
2011-02-27, 02:41:04,VALID,1007.31,VALID,0,VALID,104,VALID,0.105969,VALID,22.387,VALID,56,VALID,0,
2011-02-27, 02:42:04,VALID,1007.3,VALID,0,VALID,104,VALID,0.105969,VALID,22.387,VALID,56,VALID,0,
2011-02-27, 02:43:04,VALID,1007.3,VALID,0,VALID,104,VALID,0.105969,VALID,22.4065,VALID,56,VALID,0,
2011-02-27, 02:44:04,VALID,1007.27,VALID,0,VALID,104,VALID,0,VALID,22.4065,VALID,56,VALID,0,
2011-02-27, 02:45:04,VALID,1007.24,VALID,0,VALID,104,VALID,0.105969,VALID,22.3853,VALID,56,VALID,0,
2011-02-27, 02:46:04,VALID,1007.24,VALID,0,VALID,104,VALID,0.105969,VALID,22.3676,VALID,56,VALID,0,
2011-02-27, 02:47:04,VALID,1007.21,VALID,0,VALID,104,VALID,0.105969,VALID,22.3676,VALID,56,VALID,0,
2011-02-27, 02:48:04,VALID,1007.17,VALID,0,VALID,104,VALID,0.105969,VALID,22.387,VALID,56,VALID,0,
2011-02-27, 02:49:04,VALID,1007.17,VALID,0,VALID,104,VALID,0.105969,VALID,22.426,VALID,56,VALID,0,
2011-02-27, 02:50:04,VALID,1007.15,VALID,0,VALID,104,VALID,0.105969,VALID,22.387,VALID,56,VALID,0,
2011-02-27, 02:51:04,VALID,1007.15,VALID,0,VALID,104,VALID,0.105969,VALID,22.3481,VALID,56,VALID,0,
2011-02-27, 02:52:04,VALID,1007.13,VALID,0,VALID,104,VALID,0.105969,VALID,22.3481,VALID,56,VALID,0,
2011-02-27, 02:53:04,VALID,1007.14,VALID,0,VALID,104,VALID,0.105969,VALID,22.3481,VALID,56,VALID,0,
2011-02-27, 02:54:04,VALID,1007.14,VALID,0,VALID,104,VALID,0.105969,VALID,22.3286,VALID,56,VALID,0,
2011-02-27, 02:55:04,VALID,1007.12,VALID,0,VALID,104,VALID,0.105969,VALID,22.3091,VALID,56,VALID,0,
2011-02-27, 02:56:04,VALID,1007.14,VALID,0,VALID,104,VALID,0.105969,VALID,22.2897,VALID,56,VALID,0,
2011-02-27, 02:57:04,VALID,1007.15,VALID,0,VALID,104,VALID,0.105969,VALID,22.2702,VALID,56,VALID,0,
2011-02-27, 02:58:04,VALID,1007.11,VALID,0,VALID,104,VALID,0.105969,VALID,22.2507,VALID,56,VALID,0,
2011-02-27, 02:59:04,VALID,1007.12,VALID,0,VALID,104,VALID,0.105969,VALID,22.2702,VALID,56,VALID,0,
2011-02-27, 03:00:04,VALID,1007.1,VALID,0,VALID,104,VALID,0,VALID,22.3108,VALID,56,VALID,0,
2011-02-27, 03:01:04,VALID,1007.09,VALID,0,VALID,104,VALID,0,VALID,22.3108,VALID,56,VALID,0,
2011-02-27, 03:02:04,VALID,1007.07,VALID,0,VALID,104,VALID,0,VALID,22.3108,VALID,56,VALID,0,
2011-02-27, 03:03:04,VALID,1007.08,VALID,0,VALID,104,VALID,0,VALID,22.3108,VALID,56,VALID,0,
2011-02-27, 03:04:04,VALID,1007.03,VALID,0,VALID,104,VALID,0,VALID,22.3108,VALID,56,VALID,0,
2011-02-27, 03:05:04,VALID,1007.05,VALID,0,VALID,104,VALID,0,VALID,22.3303,VALID,56,VALID,0,
2011-02-27, 03:06:04,VALID,1007.04,VALID,0,VALID,104,VALID,0.105969,VALID,22.3303,VALID,56,VALID,0,
2011-02-27, 03:07:04,VALID,1007.07,VALID,0,VALID,104,VALID,0,VALID,22.3498,VALID,56,VALID,0,
2011-02-27, 03:08:04,VALID,1007.08,VALID,0,VALID,104,VALID,0,VALID,22.3498,VALID,56,VALID,0,
2011-02-27, 03:09:04,VALID,1007.09,VALID,0,VALID,104,VALID,0,VALID,22.3091,VALID,56,VALID,0,
2011-02-27, 03:10:04,VALID,1007.09,VALID,0,VALID,104,VALID,0,VALID,22.3303,VALID,56,VALID,0,
2011-02-27, 03:11:04,VALID,1007.11,VALID,0,VALID,104,VALID,0,VALID,22.3303,VALID,56,VALID,0,
2011-02-27, 03:12:04,VALID,1007.11,VALID,0,VALID,104,VALID,0,VALID,22.3303,VALID,56,VALID,0,
2011-02-27, 03:13:04,VALID,1007.08,VALID,0,VALID,104,VALID,0,VALID,22.3108,VALID,56,VALID,0,
2011-02-27, 03:14:04,VALID,1007.13,VALID,0,VALID,104,VALID,0,VALID,22.3303,VALID,56,VALID,0,
2011-02-27, 03:15:04,VALID,1007.06,VALID,0,VALID,104,VALID,0.105969,VALID,22.3091,VALID,56,VALID,0,
2011-02-27, 03:16:04,VALID,1007.04,VALID,0,VALID,104,VALID,0.105969,VALID,22.3091,VALID,56,VALID,0,
2011-02-27, 03:17:04,VALID,1007.03,VALID,0,VALID,104,VALID,0.105969,VALID,22.2897,VALID,56,VALID,0,
2011-02-27, 03:18:04,VALID,1007.01,VALID,0,VALID,104,VALID,0.105969,VALID,22.3091,VALID,56,VALID,0,
2011-02-27, 03:19:04,VALID,1007,VALID,0,VALID,104,VALID,0.105969,VALID,22.3108,VALID,56,VALID,0,
2011-02-27, 03:20:04,VALID,1006.98,VALID,0,VALID,104,VALID,0.105969,VALID,22.2897,VALID,56,VALID,0,
2011-02-27, 03:21:04,VALID,1006.98,VALID,0,VALID,104,VALID,0.105969,VALID,22.2312,VALID,56,VALID,0,
2011-02-27, 03:22:04,VALID,1006.95,VALID,0,VALID,104,VALID,0.105969,VALID,22.2118,VALID,56,VALID,0,
2011-02-27, 03:23:04,VALID,1006.97,VALID,0,VALID,104,VALID,0.105969,VALID,22.1923,VALID,56,VALID,0,
2011-02-27, 03:24:04,VALID,1006.97,VALID,0,VALID,104,VALID,0.105969,VALID,22.1728,VALID,56,VALID,0,
2011-02-27, 03:25:04,VALID,1006.98,VALID,0,VALID,104,VALID,0.105969,VALID,22.1728,VALID,56,VALID,0,
2011-02-27, 03:26:04,VALID,1006.99,VALID,0,VALID,104,VALID,0.105969,VALID,22.1728,VALID,56,VALID,0,
2011-02-27, 03:27:04,VALID,1006.97,VALID,0,VALID,104,VALID,0.105969,VALID,22.1322,VALID,56,VALID,0,
2011-02-27, 03:28:04,VALID,1006.96,VALID,0,VALID,104,VALID,0.105969,VALID,22.1728,VALID,56,VALID,0,
2011-02-27, 03:29:04,VALID,1006.94,VALID,0,VALID,104,VALID,0,VALID,22.1745,VALID,56,VALID,0,
2011-02-27, 03:30:04,VALID,1006.94,VALID,0,VALID,104,VALID,0,VALID,22.155,VALID,56,VALID,0,
2011-02-27, 03:31:04,VALID,1006.91,VALID,0,VALID,104,VALID,0,VALID,22.155,VALID,56,VALID,0,
2011-02-27, 03:32:04,VALID,1006.93,VALID,0,VALID,104,VALID,0,VALID,22.155,VALID,56,VALID,0,
2011-02-27, 03:33:04,VALID,1006.93,VALID,0,VALID,104,VALID,0,VALID,22.155,VALID,56,VALID,0,
2011-02-27, 03:34:04,VALID,1006.94,VALID,0,VALID,104,VALID,0,VALID,22.1355,VALID,56,VALID,0,
2011-02-27, 03:35:04,VALID,1006.95,VALID,0,VALID,104,VALID,0,VALID,22.1161,VALID,56,VALID,0,
2011-02-27, 03:36:04,VALID,1006.96,VALID,0,VALID,104,VALID,0,VALID,22.0966,VALID,56,VALID,0,
2011-02-27, 03:37:04,VALID,1006.98,VALID,0,VALID,104,VALID,0,VALID,22.0966,VALID,56,VALID,0,
2011-02-27, 03:38:04,VALID,1006.99,VALID,0,VALID,104,VALID,0,VALID,22.0966,VALID,56,VALID,0,
2011-02-27, 03:39:04,VALID,1006.99,VALID,0,VALID,104,VALID,0,VALID,22.1372,VALID,56,VALID,0,
2011-02-27, 03:40:04,VALID,1007.02,VALID,0,VALID,104,VALID,0,VALID,22.1161,VALID,56,VALID,0,
2011-02-27, 03:41:04,VALID,1007.02,VALID,0,VALID,104,VALID,0,VALID,22.1177,VALID,56,VALID,0,
2011-02-27, 03:42:04,VALID,1007.03,VALID,0,VALID,104,VALID,0,VALID,22.0966,VALID,56,VALID,0,
2011-02-27, 03:43:04,VALID,1007.02,VALID,0,VALID,104,VALID,0,VALID,22.0771,VALID,56,VALID,0,
2011-02-27, 03:44:04,VALID,1006.99,VALID,0,VALID,104,VALID,0,VALID,22.0576,VALID,56,VALID,0,
2011-02-27, 03:45:04,VALID,1006.99,VALID,0,VALID,104,VALID,0,VALID,22.0382,VALID,55,VALID,0,
2011-02-27, 03:46:04,VALID,1006.97,VALID,0,VALID,104,VALID,0,VALID,22.0382,VALID,55,VALID,0,
2011-02-27, 03:47:04,VALID,1007.01,VALID,0,VALID,104,VALID,0,VALID,22.0382,VALID,55,VALID,0,
2011-02-27, 03:48:04,VALID,1007,VALID,0,VALID,104,VALID,0,VALID,22.017,VALID,55,VALID,0,
2011-02-27, 03:49:04,VALID,1007.03,VALID,0,VALID,104,VALID,0,VALID,22.0382,VALID,56,VALID,0,
2011-02-27, 03:50:04,VALID,1007.02,VALID,0,VALID,104,VALID,0,VALID,22.0382,VALID,56,VALID,0,
2011-02-27, 03:51:04,VALID,1007.07,VALID,0,VALID,104,VALID,0,VALID,22.0382,VALID,55,VALID,0,
2011-02-27, 03:52:04,VALID,1007.06,VALID,0,VALID,104,VALID,0,VALID,22.0382,VALID,55,VALID,0,
2011-02-27, 03:53:04,VALID,1007.07,VALID,0,VALID,104,VALID,0,VALID,21.9992,VALID,55,VALID,0,
2011-02-27, 03:54:04,VALID,1007.06,VALID,0,VALID,104,VALID,0,VALID,21.9797,VALID,55,VALID,0,
2011-02-27, 03:55:04,VALID,1007.07,VALID,0,VALID,104,VALID,0,VALID,21.9603,VALID,55,VALID,0,
2011-02-27, 03:56:04,VALID,1007.09,VALID,0,VALID,104,VALID,0,VALID,21.9408,VALID,56,VALID,0,
2011-02-27, 03:57:04,VALID,1007.11,VALID,0,VALID,104,VALID,0,VALID,21.9213,VALID,56,VALID,0,
2011-02-27, 03:58:04,VALID,1007.12,VALID,0,VALID,104,VALID,0,VALID,21.8807,VALID,56,VALID,0,
2011-02-27, 03:59:04,VALID,1007.14,VALID,0,VALID,104,VALID,0,VALID,21.8824,VALID,56,VALID,0,
2011-02-27, 04:00:04,VALID,1007.15,VALID,0,VALID,104,VALID,0,VALID,21.8824,VALID,56,VALID,0,
2011-02-27, 04:01:04,VALID,1007.17,VALID,0,VALID,104,VALID,0,VALID,21.8824,VALID,56,VALID,0,